Regional Weather Roundup
Issued by NWS

Home | Current Version | Previous Version | Text Only | Print | Product List | Glossary On
Versions: 1 2 3 4 5 6 7 8 9 10 11 12 13 14 15 16 17 18 19 20 21 22 23 24 25 26 27 28 29 30 31 32 33 34 35 36 37 38 39 40 41 42 43 44 45 46 47 48 49 50
000
ASUS44 KFWD 281510
RWRTX
NORTH TEXAS HOURLY WEATHER ROUNDUP
NATIONAL WEATHER SERVICE FORT WORTH TX
1000 AM CDT TUE MAR 28 2017

NOTE: "FAIR" INDICATES FEW OR NO CLOUDS BELOW 12,000 FEET WITH NO
SIGNIFICANT WEATHER AND/OR OBSTRUCTIONS TO VISIBILITY.

TXZ118-119-281600-
DALLAS/FORT WORTH METROPLEX

CITY           SKY/WX    TMP DP  RH WIND       PRES   REMARKS
DFW AIRPORT    CLOUDY    67  61  81 E9        29.89S
DALLAS LOVE    CLOUDY    66  60  81 E10       29.91R
FTW MEACHAM    CLOUDY    65  60  84 E8        29.88F
DAL-EXECUTIVE  CLOUDY    66  62  87 E8        29.90R
FTW-ALLIANCE   CLOUDY    64  60  87 E9        29.90S
FTW-NAS-JRB    CLOUDY    65  62  90 E10       29.89F FOG
FTW-SPINKS     PTSUNNY   64  63  94 E12       29.90S FOG
ARLINGTON      CLOUDY    64  61  90 E8        29.90S
GRAND PRAIRIE  PTSUNNY   64  64 100 NE5       29.91R
ADDISON        CLOUDY    64  57  77 E7        29.92R
MESQUITE       CLOUDY    64  61  88 E6        29.92R
LANCASTER      CLOUDY    65  62  89 E6        29.91F
$$

TXZ091>094-102>105-117-120-121-131>134-281600-
NORTH CENTRAL TEXAS

CITY           SKY/WX    TMP DP  RH WIND       PRES   REMARKS
SHRMAN/DENISON CLOUDY    59  52  79 E9        29.94S
GAINESVILLE    CLOUDY    58  50  74 E7        29.94R
BOWIE          CLOUDY    60  54  79 E8        29.90S
BRIDGEPORT     CLOUDY    59  56  88 E5        29.91S
DECATUR        CLOUDY    59  54  84 E7        29.90S
DENTON         CLOUDY    61  57  87 E10       29.91R
MCKINNEY       CLOUDY    61  59  93 E6        29.93R
BONHAM         CLOUDY    59  55  88 E8        29.94S
GREENVILLE       N/A     64  57  77 E5        29.94R
ROCKWALL         N/A     65  60  85 E8        29.93R
TERRELL        CLOUDY    67  61  81 E5        29.92S
WAXAHACHIE     CLOUDY    65  65 100 NE6       29.91F FOG
CLEBURNE       CLOUDY    66  66 100 E10       29.89S FOG
GRANBURY       CLOUDY    67  62  84 E6        29.89R HAZE
$$

TXZ083>090-098>101-113>116-127>130-139>142-154-155-281600-
WESTERN NORTH TEXAS

CITY           SKY/WX    TMP DP  RH WIND       PRES   REMARKS
WICHITA FALLS  CLOUDY    57  49  74 E17       29.88S
WF-KICKAPOO    CLOUDY    58  51  78 E13G22    29.89F
VERNON         CLOUDY    58  47  65 SE13      29.89R
ABILENE        PTSUNNY   65  61  87 SE17      29.81S FOG
ABILENE-DYESS  CLOUDY    67  62  84 S12       29.78R
GRAHAM         CLOUDY    60  60 100 E10G16    29.85F FOG
BRECKENRIDGE   CLOUDY    64  58  81 SE13      29.84F
CISCO          FOG       63  63 100 SE12      29.84F VSB 1
RANGER         CLOUDY    61  61 100 E7        29.86F FOG
MINERAL WELLS  CLOUDY    65  59  81 SE12      29.86S
STEPHENVILLE   CLOUDY    63  61  92 E7        29.89S
COMANCHE       CLOUDY    65  65 100 E7        29.86S
BROWNWOOD      CLOUDY    68  63  83 SE13      29.83F
COLEMAN        CLOUDY    69  62  78 SE16G23   29.79F
$$

TXZ143>147-156>162-174-175-281600-
CENTRAL TEXAS

CITY           SKY/WX    TMP DP  RH WIND       PRES   REMARKS
WACO           CLOUDY    70  67  90 SE10      29.87R
WACO-MCGREGOR  LGT RAIN  70  67  90 SE9       29.88R FOG
HILLSBORO      CLOUDY    68  65  90 E8        29.88S
CORSICANA      CLOUDY    71  67  87 E8        29.91R
MEXIA          CLOUDY    71  67  88 SE8G16    29.88S FOG
HEARNE         CLOUDY    72  71  98 SE6       29.88S
CAMERON        CLOUDY    73  69  88 SE7       29.86S
TEMPLE         CLOUDY    70  69  97 SE9       29.87R FOG
KILLEEN        LGT RAIN  68  66  94 SE8       29.85R FOG
KILLEEN-SKYLRK CLOUDY    70  68  93 SE8       29.86R
FORT HOOD      CLOUDY    68  67  97 SE13      29.83R FOG
GATESVILLE     PTSUNNY   70  70 100 CALM      29.89R FOG
HAMILTON       CLOUDY    69  69 100 SE12      29.87S FOG
LAMPASAS       CLOUDY    71  69  93 SE6       29.84F FOG
$$

TXZ095>097-106>112-122>126-135>138-148>153-164>167-281600-
EAST TEXAS

CITY           SKY/WX    TMP DP  RH WIND       PRES   REMARKS
PARIS          CLOUDY    61  54  77 E13       29.96R
SULPHUR SPRNGS CLOUDY    64  60  87 E6        29.96S
MOUNT PLEASANT CLOUDY    65  58  78 E9        29.96S
GILMER         CLOUDY    67  62  85 E5        29.95R
MINEOLA        CLOUDY    68  63  83 SE3       29.93S
TYLER          CLOUDY    71  66  84 E7        29.93R
LONGVIEW       CLOUDY    71  68  90 E6        29.93S
MARSHALL       PTSUNNY   70  65  85 CALM      29.96F
ATHENS         CLOUDY    70  68  94 SE6       29.91S
PALESTINE      CLOUDY    72  69  90 SE7       29.92S
JACKSONVILLE   CLOUDY    70  68  93 SE5       29.95R FOG
HENDERSON      CLOUDY    69  67  92 SE6       29.95R
NACOGDOCHES    CLOUDY    72  66  83 S7        29.92R
LUFKIN         PTSUNNY   73  68  84 SE10      29.92R
$$

SUPPLEMENTAL OBSERVATIONS (CENTRAL)

CITY           SKY/WX    TMP DP  RH WIND       PRES   REMARKS
CADDO GRASSLND   N/A     61  54  77 E5          N/A
PAT MAYSE LAKE   N/A     61  57  88 NE7         N/A
GREENVILLE       N/A     63  57  82 E6          N/A
CEDAR HILL       N/A     66  63  88 E3          N/A
MCGREGOR         N/A     70  68  94 SE8         N/A
TEMPLE           N/A     70  68  94 SE7         N/A
$$

SUPPLEMENTAL OBSERVATIONS (WEST)

CITY           SKY/WX    TMP DP  RH WIND       PRES   REMARKS
POSSUM KINGDOM   N/A     63  57  82 E10         N/A
LBJ GRASSLAND    N/A     61  55  82 E8G16       N/A
GRANBURY         N/A     66  61  82 SE8         N/A
HAMBY            N/A     64  59  82 SE15G23     N/A
IVIE RESERVOIR   N/A     72  63  73 SE14G23     N/A
COLORADO BEND    N/A     70  64  83 S7G15       N/A
$$

SUPPLEMENTAL OBSERVATIONS (EAST)

CITY           SKY/WX    TMP DP  RH WIND       PRES   REMARKS
CLARKSVILLE      N/A     63  55  77 E8          N/A
TEXARKANA        N/A     66  57  72 SE3         N/A
LINDEN           N/A     64  57  77 E5          N/A
GILMER           N/A     70  63  78 E3          N/A
HENDERSON        N/A     70  64  83 SE6         N/A
N SABINE NF      N/A     73  68  83 MISG        N/A
S SABINE NF      N/A     73  68  83 NW2         N/A
$$

SUPPLEMENTAL OBSERVATIONS ARE A COLLECTION OF AUTOMATED INSTRUMENTS
THAT ARE MAINTAINED BY A VARIETY OF FEDERAL AND STATE AGENCIES.
CERTAIN ELEMENTS...SUCH AS HUMIDITY VALUES AND SUSTAINED WIND
SPEEDS...MAY BE APPROXIMATED.




USA.gov is the U.S. government's official web portal to all federal, state and local government web resources and services.